Time,TemperatureF,DewpointF,PressureIn,WindDirection,WindDirectionDegrees,WindSpeedMPH,WindSpeedGustMPH,Humidity,HourlyPrecipIn,Conditions,Clouds,dailyrainin,SoftwareType,DateUTC
2013-08-06 00:00:00,79.2,76.4,29.54,West,269,0.0,0.0,91,0.00,,,0.00,VWS V14.01,2013-08-06 04:00:00,
2013-08-06 00:01:00,79.2,76.4,29.54,West,269,0.0,0.0,91,0.00,,,0.00,VWS V14.01,2013-08-06 04:01:00,
2013-08-06 00:05:00,79.3,76.6,29.54,West,269,0.0,0.0,91,0.00,,,0.00,VWS V14.01,2013-08-06 04:05:00,
2013-08-06 00:06:00,79.3,76.6,29.54,West,269,0.0,0.0,91,0.00,,,0.00,VWS V14.01,2013-08-06 04:06:00,
2013-08-06 00:10:00,79.2,76.5,29.54,West,269,0.0,0.0,92,0.00,,,0.00,VWS V14.01,2013-08-06 04:10:00,
2013-08-06 00:11:00,79.2,76.5,29.54,West,269,0.0,0.0,92,0.00,,,0.00,VWS V14.01,2013-08-06 04:11:00,
2013-08-06 00:15:00,79.1,76.4,29.53,West,269,0.0,0.0,92,0.00,,,0.00,VWS V14.01,2013-08-06 04:15:00,
2013-08-06 00:16:00,79.1,76.4,29.53,West,269,0.0,0.0,92,0.00,,,0.00,VWS V14.01,2013-08-06 04:16:00,
2013-08-06 00:20:00,79.1,76.4,29.53,West,269,0.0,0.0,92,0.00,,,0.00,VWS V14.01,2013-08-06 04:20:00,
2013-08-06 00:21:00,79.1,76.4,29.53,West,269,0.0,0.0,92,0.00,,,0.00,VWS V14.01,2013-08-06 04:21:00,
2013-08-06 00:25:00,79.2,76.5,29.53,West,269,0.0,0.0,92,0.00,,,0.00,VWS V14.01,2013-08-06 04:25:00,
2013-08-06 00:26:00,79.2,76.5,29.53,West,269,0.0,0.0,92,0.00,,,0.00,VWS V14.01,2013-08-06 04:26:00,
2013-08-06 00:30:00,79.1,76.4,29.53,West,269,0.0,0.0,92,0.00,,,0.00,VWS V14.01,2013-08-06 04:30:00,
2013-08-06 00:31:00,79.1,76.4,29.53,West,269,0.0,0.0,92,0.00,,,0.00,VWS V14.01,2013-08-06 04:31:00,
2013-08-06 00:35:00,79.1,76.4,29.52,West,269,0.0,0.0,92,0.00,,,0.00,VWS V14.01,2013-08-06 04:35:00,
2013-08-06 00:36:00,79.1,76.4,29.52,West,269,0.0,0.0,92,0.00,,,0.00,VWS V14.01,2013-08-06 04:36:00,
2013-08-06 00:40:00,79.0,76.3,29.52,West,269,0.0,0.0,92,0.00,,,0.00,VWS V14.01,2013-08-06 04:40:00,
2013-08-06 00:41:00,79.0,76.3,29.52,West,269,0.0,0.0,92,0.00,,,0.00,VWS V14.01,2013-08-06 04:41:00,
2013-08-06 00:45:00,79.0,76.3,29.52,West,269,0.0,0.0,92,0.00,,,0.00,VWS V14.01,2013-08-06 04:45:00,
2013-08-06 00:46:00,79.0,76.3,29.52,West,269,0.0,0.0,92,0.00,,,0.00,VWS V14.01,2013-08-06 04:46:00,
2013-08-06 00:50:00,79.0,76.3,29.52,West,269,0.0,0.0,92,0.00,,,0.00,VWS V14.01,2013-08-06 04:50:00,
2013-08-06 00:51:00,79.0,76.3,29.52,West,269,0.0,0.0,92,0.00,,,0.00,VWS V14.01,2013-08-06 04:51:00,
2013-08-06 00:55:00,78.9,76.2,29.52,West,269,0.0,0.0,92,0.00,,,0.00,VWS V14.01,2013-08-06 04:55:00,
2013-08-06 00:56:00,78.9,76.2,29.52,West,269,0.0,0.0,92,0.00,,,0.00,VWS V14.01,2013-08-06 04:56:00,
2013-08-06 01:00:00,79.0,76.3,29.52,West,269,0.0,0.0,92,0.00,,,0.00,VWS V14.01,2013-08-06 05:00:00,
2013-08-06 01:01:00,79.0,76.3,29.52,West,269,0.0,0.0,92,0.00,,,0.00,VWS V14.01,2013-08-06 05:01:00,
2013-08-06 01:05:00,78.9,76.2,29.52,West,269,0.0,0.0,92,0.00,,,0.00,VWS V14.01,2013-08-06 05:05:00,
2013-08-06 01:10:00,79.0,76.3,29.52,West,269,0.0,0.0,92,0.00,,,0.00,VWS V14.01,2013-08-06 05:10:00,
2013-08-06 01:11:00,79.0,76.3,29.52,West,269,0.0,0.0,92,0.00,,,0.00,VWS V14.01,2013-08-06 05:11:00,
2013-08-06 01:15:00,78.8,76.2,29.51,West,269,0.0,0.0,92,0.00,,,0.00,VWS V14.01,2013-08-06 05:15:00,
2013-08-06 01:16:00,78.8,76.2,29.51,West,269,0.0,0.0,92,0.00,,,0.00,VWS V14.01,2013-08-06 05:16:00,
2013-08-06 01:20:00,78.9,76.2,29.50,West,269,0.0,0.0,92,0.00,,,0.00,VWS V14.01,2013-08-06 05:20:00,
2013-08-06 01:21:00,78.9,76.2,29.51,West,269,0.0,0.0,92,0.00,,,0.00,VWS V14.01,2013-08-06 05:21:00,
2013-08-06 01:25:00,78.8,76.2,29.50,West,269,0.0,0.0,92,0.00,,,0.00,VWS V14.01,2013-08-06 05:25:00,
2013-08-06 01:26:00,78.8,76.2,29.51,West,269,0.0,0.0,92,0.00,,,0.00,VWS V14.01,2013-08-06 05:26:00,
2013-08-06 01:30:00,78.8,76.2,29.50,West,269,0.0,0.0,92,0.00,,,0.00,VWS V14.01,2013-08-06 05:30:00,
2013-08-06 01:31:00,78.8,76.2,29.50,West,269,0.0,0.0,92,0.00,,,0.00,VWS V14.01,2013-08-06 05:31:00,
2013-08-06 01:35:00,78.8,76.2,29.50,West,269,0.0,0.0,92,0.00,,,0.00,VWS V14.01,2013-08-06 05:35:00,
2013-08-06 01:36:00,78.8,76.2,29.50,West,269,0.0,0.0,92,0.00,,,0.00,VWS V14.01,2013-08-06 05:36:00,
2013-08-06 01:40:00,78.7,76.1,29.50,West,269,0.0,0.0,92,0.00,,,0.00,VWS V14.01,2013-08-06 05:40:00,
2013-08-06 01:41:00,78.7,76.1,29.50,West,269,0.0,0.0,92,0.00,,,0.00,VWS V14.01,2013-08-06 05:41:00,
2013-08-06 01:45:00,78.7,76.1,29.50,West,269,0.0,0.0,92,0.00,,,0.00,VWS V14.01,2013-08-06 05:45:00,
2013-08-06 01:46:00,78.7,76.1,29.50,West,269,0.0,0.0,92,0.00,,,0.00,VWS V14.01,2013-08-06 05:46:00,
2013-08-06 01:50:00,78.7,76.1,29.49,West,269,0.0,0.0,92,0.00,,,0.00,VWS V14.01,2013-08-06 05:50:00,
2013-08-06 01:51:00,78.7,76.1,29.49,West,269,0.0,0.0,92,0.00,,,0.00,VWS V14.01,2013-08-06 05:51:00,
2013-08-06 01:55:00,78.4,75.8,29.50,West,269,0.0,0.0,92,0.00,,,0.00,VWS V14.01,2013-08-06 05:55:00,
2013-08-06 01:56:00,78.4,75.8,29.50,West,269,0.0,0.0,92,0.00,,,0.00,VWS V14.01,2013-08-06 05:56:00,
2013-08-06 02:00:00,78.3,75.8,29.49,West,269,0.0,0.0,92,0.00,,,0.00,VWS V14.01,2013-08-06 06:00:00,
2013-08-06 02:01:00,78.3,75.8,29.49,West,269,0.0,0.0,92,0.00,,,0.00,VWS V14.01,2013-08-06 06:01:00,
2013-08-06 02:05:00,78.3,75.8,29.49,West,269,0.0,0.0,92,0.00,,,0.00,VWS V14.01,2013-08-06 06:05:00,
2013-08-06 02:10:00,78.4,75.9,29.49,West,269,0.0,0.0,92,0.00,,,0.00,VWS V14.01,2013-08-06 06:10:00,
2013-08-06 02:11:00,78.4,75.8,29.49,West,269,0.0,0.0,92,0.00,,,0.00,VWS V14.01,2013-08-06 06:11:00,
2013-08-06 02:15:00,78.3,75.8,29.49,West,269,0.0,0.0,92,0.00,,,0.00,VWS V14.01,2013-08-06 06:15:00,
2013-08-06 02:16:00,78.3,75.8,29.49,West,269,0.0,0.0,92,0.00,,,0.00,VWS V14.01,2013-08-06 06:16:00,
2013-08-06 02:20:00,78.3,75.8,29.48,West,269,0.0,0.0,92,0.00,,,0.00,VWS V14.01,2013-08-06 06:20:00,
2013-08-06 02:21:00,78.3,75.8,29.48,West,269,0.0,0.0,92,0.00,,,0.00,VWS V14.01,2013-08-06 06:21:00,
2013-08-06 02:25:00,78.1,75.6,29.48,West,269,0.0,0.0,92,0.00,,,0.00,VWS V14.01,2013-08-06 06:25:00,
2013-08-06 02:26:00,78.1,75.6,29.48,West,269,0.0,0.0,92,0.00,,,0.00,VWS V14.01,2013-08-06 06:26:00,
2013-08-06 02:30:00,78.0,75.5,29.48,West,269,0.0,0.0,92,0.00,,,0.00,VWS V14.01,2013-08-06 06:30:00,
2013-08-06 02:35:00,78.0,75.6,29.48,West,269,0.0,0.0,92,0.00,,,0.00,VWS V14.01,2013-08-06 06:35:00,
2013-08-06 02:36:00,78.0,75.6,29.48,West,269,0.0,0.0,92,0.00,,,0.00,VWS V14.01,2013-08-06 06:36:00,
2013-08-06 02:40:00,77.9,75.5,29.48,West,269,0.0,0.0,92,0.00,,,0.00,VWS V14.01,2013-08-06 06:40:00,
2013-08-06 02:41:00,77.9,75.5,29.48,West,269,0.0,0.0,92,0.00,,,0.00,VWS V14.01,2013-08-06 06:41:00,
2013-08-06 02:45:00,78.0,75.6,29.48,West,269,0.0,0.0,92,0.00,,,0.00,VWS V14.01,2013-08-06 06:45:00,
2013-08-06 02:46:00,78.0,75.6,29.48,West,269,0.0,0.0,92,0.00,,,0.00,VWS V14.01,2013-08-06 06:46:00,
2013-08-06 02:50:00,78.0,75.6,29.47,West,269,0.0,0.0,92,0.00,,,0.00,VWS V14.01,2013-08-06 06:50:00,
2013-08-06 02:51:00,78.0,75.6,29.47,West,269,0.0,0.0,92,0.00,,,0.00,VWS V14.01,2013-08-06 06:51:00,
2013-08-06 02:55:00,78.1,75.7,29.47,West,269,0.0,0.0,92,0.00,,,0.00,VWS V14.01,2013-08-06 06:55:00,
2013-08-06 02:56:00,78.1,75.7,29.47,West,269,0.0,0.0,92,0.00,,,0.00,VWS V14.01,2013-08-06 06:56:00,
2013-08-06 03:00:00,77.9,75.5,29.47,West,269,0.0,0.0,92,0.00,,,0.00,VWS V14.01,2013-08-06 07:00:00,
2013-08-06 03:01:00,77.9,75.5,29.47,West,269,0.0,0.0,92,0.00,,,0.00,VWS V14.01,2013-08-06 07:01:00,
2013-08-06 03:05:00,78.0,75.6,29.47,West,269,0.0,0.0,92,0.00,,,0.00,VWS V14.01,2013-08-06 07:05:00,
2013-08-06 03:10:00,77.9,75.5,29.47,West,269,0.0,0.0,92,0.00,,,0.00,VWS V14.01,2013-08-06 07:10:00,
2013-08-06 03:11:00,77.9,75.5,29.47,West,269,0.0,0.0,92,0.00,,,0.00,VWS V14.01,2013-08-06 07:11:00,
2013-08-06 03:15:00,77.9,75.5,29.47,West,269,0.0,0.0,92,0.00,,,0.00,VWS V14.01,2013-08-06 07:15:00,
2013-08-06 03:16:00,77.9,75.5,29.47,West,269,0.0,0.0,92,0.00,,,0.00,VWS V14.01,2013-08-06 07:16:00,
2013-08-06 03:20:00,77.8,75.4,29.47,West,269,0.0,0.0,92,0.00,,,0.00,VWS V14.01,2013-08-06 07:20:00,
2013-08-06 03:21:00,77.8,75.4,29.47,West,269,0.0,0.0,92,0.00,,,0.00,VWS V14.01,2013-08-06 07:21:00,
2013-08-06 03:25:00,77.7,75.4,29.46,West,269,0.0,0.0,92,0.00,,,0.00,VWS V14.01,2013-08-06 07:25:00,
2013-08-06 03:26:00,77.7,75.4,29.46,West,269,0.0,0.0,92,0.00,,,0.00,VWS V14.01,2013-08-06 07:26:00,
2013-08-06 03:30:00,77.7,75.4,29.46,West,269,0.0,0.0,92,0.00,,,0.00,VWS V14.01,2013-08-06 07:30:00,
2013-08-06 03:31:00,77.7,75.4,29.46,West,269,0.0,0.0,92,0.00,,,0.00,VWS V14.01,2013-08-06 07:31:00,
2013-08-06 03:35:00,77.7,75.4,29.46,West,269,0.0,0.0,93,0.00,,,0.00,VWS V14.01,2013-08-06 07:35:00,
2013-08-06 03:36:00,77.7,75.4,29.46,West,269,0.0,0.0,93,0.00,,,0.00,VWS V14.01,2013-08-06 07:36:00,
2013-08-06 03:40:00,77.7,75.4,29.46,West,269,0.0,0.0,93,0.00,,,0.00,VWS V14.01,2013-08-06 07:40:00,
2013-08-06 03:41:00,77.7,75.4,29.46,West,269,0.0,0.0,93,0.00,,,0.00,VWS V14.01,2013-08-06 07:41:00,
2013-08-06 03:45:00,77.5,75.2,29.47,West,269,0.0,0.0,93,0.00,,,0.00,VWS V14.01,2013-08-06 07:45:00,
2013-08-06 03:46:00,77.5,75.2,29.47,West,269,0.0,0.0,93,0.00,,,0.00,VWS V14.01,2013-08-06 07:46:00,
2013-08-06 03:50:00,77.5,75.2,29.47,West,269,0.0,0.0,93,0.00,,,0.00,VWS V14.01,2013-08-06 07:50:00,
2013-08-06 03:51:00,77.5,75.2,29.47,West,269,0.0,0.0,93,0.00,,,0.00,VWS V14.01,2013-08-06 07:51:00,
2013-08-06 03:55:00,77.5,75.2,29.46,West,269,0.0,0.0,92,0.00,,,0.00,VWS V14.01,2013-08-06 07:55:00,
2013-08-06 03:56:00,77.5,75.2,29.46,West,269,0.0,0.0,92,0.00,,,0.00,VWS V14.01,2013-08-06 07:56:00,
2013-08-06 04:00:00,77.4,75.1,29.46,West,269,0.0,0.0,93,0.00,,,0.00,VWS V14.01,2013-08-06 08:00:00,
2013-08-06 04:01:00,77.4,75.1,29.46,West,269,0.0,0.0,93,0.00,,,0.00,VWS V14.01,2013-08-06 08:01:00,
2013-08-06 04:05:00,77.4,75.1,29.47,West,269,0.0,0.0,92,0.00,,,0.00,VWS V14.01,2013-08-06 08:05:00,
2013-08-06 04:10:00,77.4,75.1,29.47,West,269,0.0,0.0,92,0.00,,,0.00,VWS V14.01,2013-08-06 08:10:00,
2013-08-06 04:11:00,77.4,75.1,29.47,West,269,0.0,0.0,92,0.00,,,0.00,VWS V14.01,2013-08-06 08:11:00,
2013-08-06 04:15:00,77.5,75.2,29.47,West,269,0.0,0.0,92,0.00,,,0.00,VWS V14.01,2013-08-06 08:15:00,
2013-08-06 04:16:00,77.5,75.2,29.47,West,269,0.0,0.0,92,0.00,,,0.00,VWS V14.01,2013-08-06 08:16:00,
2013-08-06 04:20:00,77.7,75.4,29.47,West,269,0.0,0.0,93,0.00,,,0.00,VWS V14.01,2013-08-06 08:20:00,
2013-08-06 04:21:00,77.7,75.4,29.47,West,269,0.0,0.0,93,0.00,,,0.00,VWS V14.01,2013-08-06 08:21:00,
2013-08-06 04:25:00,77.4,75.1,29.47,West,269,0.0,0.0,92,0.00,,,0.00,VWS V14.01,2013-08-06 08:25:00,
2013-08-06 04:26:00,77.4,75.1,29.47,West,269,0.0,0.0,92,0.00,,,0.00,VWS V14.01,2013-08-06 08:26:00,
2013-08-06 04:30:00,77.5,75.2,29.47,West,269,0.0,0.0,92,0.00,,,0.00,VWS V14.01,2013-08-06 08:30:00,
2013-08-06 04:31:00,77.5,75.2,29.47,West,269,0.0,0.0,92,0.00,,,0.00,VWS V14.01,2013-08-06 08:31:00,
2013-08-06 04:35:00,77.4,75.1,29.47,West,269,0.0,0.0,92,0.00,,,0.00,VWS V14.01,2013-08-06 08:35:00,
2013-08-06 04:36:00,77.4,75.1,29.47,West,269,0.0,0.0,92,0.00,,,0.00,VWS V14.01,2013-08-06 08:36:00,
2013-08-06 04:40:00,77.4,75.1,29.48,West,269,0.0,0.0,93,0.00,,,0.00,VWS V14.01,2013-08-06 08:40:00,
2013-08-06 04:45:00,77.1,74.8,29.48,West,269,0.0,0.0,93,0.00,,,0.00,VWS V14.01,2013-08-06 08:45:00,
2013-08-06 04:46:00,77.1,74.8,29.48,West,269,0.0,0.0,93,0.00,,,0.00,VWS V14.01,2013-08-06 08:46:00,
2013-08-06 04:50:00,77.0,74.8,29.48,West,269,0.0,0.0,93,0.00,,,0.00,VWS V14.01,2013-08-06 08:50:00,
2013-08-06 04:51:00,77.0,74.8,29.48,West,269,0.0,0.0,93,0.00,,,0.00,VWS V14.01,2013-08-06 08:51:00,
2013-08-06 04:55:00,77.0,74.8,29.48,West,269,0.0,0.0,93,0.00,,,0.00,VWS V14.01,2013-08-06 08:55:00,
2013-08-06 04:56:00,77.0,74.8,29.48,West,269,0.0,0.0,93,0.00,,,0.00,VWS V14.01,2013-08-06 08:56:00,
2013-08-06 05:00:00,77.1,74.9,29.48,West,269,0.0,0.0,93,0.00,,,0.00,VWS V14.01,2013-08-06 09:00:00,
2013-08-06 05:01:00,77.1,74.9,29.48,West,269,0.0,0.0,93,0.00,,,0.00,VWS V14.01,2013-08-06 09:01:00,
2013-08-06 05:05:00,77.1,74.9,29.48,West,269,0.0,0.0,93,0.00,,,0.00,VWS V14.01,2013-08-06 09:05:00,
2013-08-06 05:10:00,77.4,75.2,29.48,West,269,0.0,0.0,93,0.00,,,0.00,VWS V14.01,2013-08-06 09:10:00,
2013-08-06 05:11:00,77.4,75.2,29.48,West,269,0.0,0.0,93,0.00,,,0.00,VWS V14.01,2013-08-06 09:11:00,
2013-08-06 05:15:00,77.4,75.2,29.48,West,269,0.0,0.0,93,0.00,,,0.00,VWS V14.01,2013-08-06 09:15:00,
2013-08-06 05:16:00,77.4,75.2,29.48,West,269,0.0,0.0,93,0.00,,,0.00,VWS V14.01,2013-08-06 09:16:00,
2013-08-06 05:20:00,77.8,75.7,29.48,West,269,0.0,0.0,93,0.00,,,0.00,VWS V14.01,2013-08-06 09:20:00,
2013-08-06 05:21:00,77.8,75.7,29.48,West,269,0.0,0.0,93,0.00,,,0.00,VWS V14.01,2013-08-06 09:21:00,
2013-08-06 05:25:00,77.7,75.6,29.48,West,269,0.0,0.0,93,0.00,,,0.00,VWS V14.01,2013-08-06 09:25:00,
2013-08-06 05:26:00,77.7,75.6,29.48,West,269,0.0,0.0,93,0.00,,,0.00,VWS V14.01,2013-08-06 09:26:00,
2013-08-06 05:30:00,77.5,75.3,29.48,West,269,0.0,0.0,93,0.00,,,0.00,VWS V14.01,2013-08-06 09:30:00,
2013-08-06 05:31:00,77.5,75.3,29.48,West,269,0.0,0.0,93,0.00,,,0.00,VWS V14.01,2013-08-06 09:31:00,
2013-08-06 05:35:00,77.7,75.5,29.48,West,269,0.0,0.0,93,0.00,,,0.00,VWS V14.01,2013-08-06 09:35:00,
2013-08-06 05:36:00,77.7,75.5,29.48,West,269,0.0,0.0,93,0.00,,,0.00,VWS V14.01,2013-08-06 09:36:00,
2013-08-06 05:40:00,77.5,75.3,29.48,West,269,0.0,0.0,93,0.00,,,0.00,VWS V14.01,2013-08-06 09:40:00,
2013-08-06 05:41:00,77.5,75.3,29.48,West,269,0.0,0.0,93,0.00,,,0.00,VWS V14.01,2013-08-06 09:41:00,
2013-08-06 05:45:00,77.4,75.2,29.48,West,269,0.0,0.0,93,0.00,,,0.00,VWS V14.01,2013-08-06 09:45:00,
2013-08-06 05:46:00,77.4,75.2,29.48,West,269,0.0,0.0,93,0.00,,,0.00,VWS V14.01,2013-08-06 09:46:00,
2013-08-06 05:50:00,77.3,75.1,29.48,West,269,0.0,0.0,93,0.00,,,0.00,VWS V14.01,2013-08-06 09:50:00,
2013-08-06 05:51:00,77.3,75.1,29.48,West,269,0.0,0.0,93,0.00,,,0.00,VWS V14.01,2013-08-06 09:51:00,
2013-08-06 05:55:00,77.2,75.0,29.48,West,269,0.0,0.0,93,0.00,,,0.00,VWS V14.01,2013-08-06 09:55:00,
2013-08-06 05:56:00,77.2,75.0,29.48,West,269,0.0,0.0,93,0.00,,,0.00,VWS V14.01,2013-08-06 09:56:00,
2013-08-06 06:00:00,77.3,75.2,29.49,West,269,0.0,0.0,93,0.00,,,0.00,VWS V14.01,2013-08-06 10:00:00,
2013-08-06 06:01:00,77.3,75.2,29.49,West,269,0.0,0.0,93,0.00,,,0.00,VWS V14.01,2013-08-06 10:01:00,
2013-08-06 06:05:00,77.4,75.2,29.49,West,269,0.0,0.0,93,0.00,,,0.00,VWS V14.01,2013-08-06 10:05:00,
2013-08-06 06:10:00,77.3,75.1,29.49,West,269,0.0,0.0,93,0.00,,,0.00,VWS V14.01,2013-08-06 10:10:00,
2013-08-06 06:11:00,77.3,75.1,29.49,West,269,0.0,0.0,93,0.00,,,0.00,VWS V14.01,2013-08-06 10:11:00,
2013-08-06 06:15:00,77.4,75.2,29.49,West,269,0.0,0.0,93,0.00,,,0.00,VWS V14.01,2013-08-06 10:15:00,
2013-08-06 06:16:00,77.4,75.2,29.49,West,269,0.0,0.0,93,0.00,,,0.00,VWS V14.01,2013-08-06 10:16:00,
2013-08-06 06:20:00,77.3,75.1,29.49,West,269,0.0,0.0,93,0.00,,,0.00,VWS V14.01,2013-08-06 10:20:00,
2013-08-06 06:21:00,77.3,75.1,29.49,West,269,0.0,0.0,93,0.00,,,0.00,VWS V14.01,2013-08-06 10:21:00,
2013-08-06 06:25:00,77.5,75.3,29.49,West,269,0.0,0.0,93,0.00,,,0.00,VWS V14.01,2013-08-06 10:25:00,
2013-08-06 06:26:00,77.5,75.3,29.49,West,269,0.0,0.0,93,0.00,,,0.00,VWS V14.01,2013-08-06 10:26:00,
2013-08-06 06:30:00,77.3,75.1,29.49,West,269,0.0,0.0,93,0.00,,,0.00,VWS V14.01,2013-08-06 10:30:00,
2013-08-06 06:31:00,77.3,75.1,29.49,West,269,0.0,0.0,93,0.00,,,0.00,VWS V14.01,2013-08-06 10:31:00,
2013-08-06 06:35:00,77.3,75.1,29.50,West,269,0.0,0.0,93,0.00,,,0.00,VWS V14.01,2013-08-06 10:35:00,
2013-08-06 06:36:00,77.3,75.1,29.50,West,269,0.0,0.0,93,0.00,,,0.00,VWS V14.01,2013-08-06 10:36:00,
2013-08-06 06:40:00,77.2,75.0,29.49,West,269,0.0,0.0,93,0.00,,,0.00,VWS V14.01,2013-08-06 10:40:00,
2013-08-06 06:41:00,77.2,75.0,29.49,West,269,0.0,0.0,93,0.00,,,0.00,VWS V14.01,2013-08-06 10:41:00,
2013-08-06 06:45:00,77.2,75.0,29.49,West,269,0.0,0.0,93,0.00,,,0.00,VWS V14.01,2013-08-06 10:45:00,
2013-08-06 06:46:00,77.2,75.0,29.49,West,269,0.0,0.0,93,0.00,,,0.00,VWS V14.01,2013-08-06 10:46:00,
2013-08-06 06:50:00,77.1,74.9,29.49,West,269,0.0,0.0,93,0.00,,,0.00,VWS V14.01,2013-08-06 10:50:00,
2013-08-06 06:51:00,77.1,74.9,29.49,West,269,0.0,0.0,93,0.00,,,0.00,VWS V14.01,2013-08-06 10:51:00,
2013-08-06 06:55:00,77.3,75.1,29.50,West,269,0.0,0.0,93,0.00,,,0.00,VWS V14.01,2013-08-06 10:55:00,
2013-08-06 06:56:00,77.3,75.1,29.50,West,269,0.0,0.0,93,0.00,,,0.00,VWS V14.01,2013-08-06 10:56:00,
2013-08-06 07:00:00,77.2,75.0,29.49,West,269,0.0,0.0,93,0.00,,,0.00,VWS V14.01,2013-08-06 11:00:00,
2013-08-06 07:01:00,77.2,75.0,29.49,West,269,0.0,0.0,93,0.00,,,0.00,VWS V14.01,2013-08-06 11:01:00,
2013-08-06 07:05:00,77.3,75.1,29.50,West,269,0.0,0.0,93,0.00,,,0.00,VWS V14.01,2013-08-06 11:05:00,
2013-08-06 07:06:00,77.3,75.1,29.50,West,269,0.0,0.0,93,0.00,,,0.00,VWS V14.01,2013-08-06 11:06:00,
2013-08-06 07:10:00,77.1,74.9,29.50,West,269,0.0,0.0,93,0.00,,,0.00,VWS V14.01,2013-08-06 11:10:00,
2013-08-06 07:11:00,77.1,74.9,29.50,West,269,0.0,0.0,93,0.00,,,0.00,VWS V14.01,2013-08-06 11:11:00,
2013-08-06 07:15:00,77.2,75.0,29.50,West,269,0.0,0.0,93,0.00,,,0.00,VWS V14.01,2013-08-06 11:15:00,
2013-08-06 07:16:00,77.2,75.0,29.50,West,269,0.0,0.0,93,0.00,,,0.00,VWS V14.01,2013-08-06 11:16:00,
2013-08-06 07:20:00,77.2,75.0,29.50,West,269,0.0,0.0,93,0.00,,,0.00,VWS V14.01,2013-08-06 11:20:00,
2013-08-06 07:21:00,77.2,75.0,29.50,West,269,0.0,0.0,93,0.00,,,0.00,VWS V14.01,2013-08-06 11:21:00,
2013-08-06 07:25:00,77.2,75.0,29.50,West,269,0.0,0.0,93,0.00,,,0.00,VWS V14.01,2013-08-06 11:25:00,
2013-08-06 07:26:00,77.2,75.0,29.51,West,269,0.0,0.0,93,0.00,,,0.00,VWS V14.01,2013-08-06 11:26:00,
2013-08-06 07:30:00,77.2,75.1,29.50,West,269,0.0,0.0,93,0.00,,,0.00,VWS V14.01,2013-08-06 11:30:00,
2013-08-06 07:31:00,77.2,75.1,29.51,West,269,0.0,0.0,93,0.00,,,0.00,VWS V14.01,2013-08-06 11:31:00,
2013-08-06 07:35:00,77.2,75.1,29.51,West,269,0.0,0.0,93,0.00,,,0.00,VWS V14.01,2013-08-06 11:35:00,
2013-08-06 07:36:00,77.2,75.1,29.51,West,269,0.0,0.0,93,0.00,,,0.00,VWS V14.01,2013-08-06 11:36:00,
2013-08-06 07:40:00,77.2,75.1,29.51,West,269,0.0,0.0,93,0.00,,,0.00,VWS V14.01,2013-08-06 11:40:00,
2013-08-06 07:41:00,77.2,75.1,29.51,West,269,0.0,0.0,93,0.00,,,0.00,VWS V14.01,2013-08-06 11:41:00,
2013-08-06 07:45:00,77.4,75.3,29.51,West,269,0.0,0.0,93,0.00,,,0.00,VWS V14.01,2013-08-06 11:45:00,
2013-08-06 07:46:00,77.4,75.3,29.51,West,269,0.0,0.0,93,0.00,,,0.00,VWS V14.01,2013-08-06 11:46:00,
2013-08-06 07:50:00,77.4,75.3,29.51,West,269,0.0,0.0,93,0.00,,,0.00,VWS V14.01,2013-08-06 11:50:00,
2013-08-06 07:51:00,77.4,75.3,29.51,West,269,0.0,0.0,93,0.00,,,0.00,VWS V14.01,2013-08-06 11:51:00,
2013-08-06 07:55:00,77.4,75.3,29.51,West,269,0.0,0.0,93,0.00,,,0.00,VWS V14.01,2013-08-06 11:55:00,
2013-08-06 07:56:00,77.4,75.3,29.51,West,269,0.0,0.0,93,0.00,,,0.00,VWS V14.01,2013-08-06 11:56:00,
2013-08-06 08:00:00,77.8,75.7,29.51,West,269,0.0,0.0,93,0.00,,,0.00,VWS V14.01,2013-08-06 12:00:00,
2013-08-06 08:01:00,77.8,75.7,29.51,West,269,0.0,0.0,93,0.00,,,0.00,VWS V14.01,2013-08-06 12:01:00,
2013-08-06 08:05:00,77.8,75.7,29.51,West,269,0.0,0.0,93,0.00,,,0.00,VWS V14.01,2013-08-06 12:05:00,
2013-08-06 08:06:00,77.8,75.7,29.51,West,269,0.0,0.0,93,0.00,,,0.00,VWS V14.01,2013-08-06 12:06:00,
2013-08-06 08:10:00,78.1,76.0,29.51,West,269,0.0,0.0,93,0.00,,,0.00,VWS V14.01,2013-08-06 12:10:00,
2013-08-06 08:11:00,78.1,76.0,29.51,West,269,0.0,0.0,93,0.00,,,0.00,VWS V14.01,2013-08-06 12:11:00,
2013-08-06 08:15:00,78.1,76.0,29.51,West,269,0.0,0.0,93,0.00,,,0.00,VWS V14.01,2013-08-06 12:15:00,
2013-08-06 08:16:00,78.1,76.0,29.51,West,269,0.0,0.0,93,0.00,,,0.00,VWS V14.01,2013-08-06 12:16:00,
2013-08-06 08:20:00,78.1,76.0,29.51,West,269,0.0,0.0,93,0.00,,,0.00,VWS V14.01,2013-08-06 12:20:00,
2013-08-06 08:21:00,78.1,76.0,29.51,West,269,0.0,0.0,93,0.00,,,0.00,VWS V14.01,2013-08-06 12:21:00,
2013-08-06 08:25:00,78.3,76.2,29.51,West,269,0.0,0.0,93,0.00,,,0.00,VWS V14.01,2013-08-06 12:25:00,
2013-08-06 08:26:00,78.3,76.2,29.51,West,269,0.0,0.0,93,0.00,,,0.00,VWS V14.01,2013-08-06 12:26:00,
2013-08-06 08:30:00,78.5,76.3,29.51,West,269,0.0,0.0,93,0.00,,,0.00,VWS V14.01,2013-08-06 12:30:00,
2013-08-06 08:31:00,78.5,76.3,29.51,West,269,0.0,0.0,93,0.00,,,0.00,VWS V14.01,2013-08-06 12:31:00,
2013-08-06 08:35:00,78.8,76.6,29.51,West,269,0.0,0.0,93,0.00,,,0.00,VWS V14.01,2013-08-06 12:35:00,
2013-08-06 08:36:00,78.8,76.6,29.51,West,269,0.0,0.0,93,0.00,,,0.00,VWS V14.01,2013-08-06 12:36:00,
2013-08-06 08:40:00,79.0,76.7,29.51,West,269,0.0,0.0,93,0.00,,,0.00,VWS V14.01,2013-08-06 12:40:00,
2013-08-06 08:41:00,79.0,76.7,29.51,West,269,0.0,0.0,93,0.00,,,0.00,VWS V14.01,2013-08-06 12:41:00,
2013-08-06 08:45:00,79.1,76.8,29.51,West,269,0.0,0.0,93,0.00,,,0.00,VWS V14.01,2013-08-06 12:45:00,
2013-08-06 08:46:00,79.1,76.8,29.51,West,269,0.0,0.0,93,0.00,,,0.00,VWS V14.01,2013-08-06 12:46:00,
2013-08-06 08:50:00,79.4,77.0,29.51,West,269,0.0,0.0,92,0.00,,,0.00,VWS V14.01,2013-08-06 12:50:00,
2013-08-06 08:51:00,79.4,77.0,29.51,West,269,0.0,0.0,92,0.00,,,0.00,VWS V14.01,2013-08-06 12:51:00,
2013-08-06 08:55:00,79.5,77.0,29.51,West,269,0.0,0.0,92,0.00,,,0.00,VWS V14.01,2013-08-06 12:55:00,
2013-08-06 08:56:00,79.5,77.0,29.51,West,269,0.0,0.0,92,0.00,,,0.00,VWS V14.01,2013-08-06 12:56:00,
2013-08-06 09:00:00,79.8,77.2,29.51,West,269,0.0,0.0,92,0.00,,,0.00,VWS V14.01,2013-08-06 13:00:00,
2013-08-06 09:01:00,79.8,77.2,29.51,West,269,0.0,0.0,92,0.00,,,0.00,VWS V14.01,2013-08-06 13:01:00,
2013-08-06 09:05:00,80.0,77.4,29.51,West,269,0.0,0.0,92,0.00,,,0.00,VWS V14.01,2013-08-06 13:05:00,
2013-08-06 09:10:00,80.2,77.4,29.52,West,269,0.0,0.0,91,0.00,,,0.00,VWS V14.01,2013-08-06 13:10:00,
2013-08-06 09:11:00,80.2,77.4,29.52,West,269,0.0,0.0,91,0.00,,,0.00,VWS V14.01,2013-08-06 13:11:00,
2013-08-06 09:15:00,80.4,77.5,29.51,West,269,0.0,0.0,91,0.00,,,0.00,VWS V14.01,2013-08-06 13:15:00,
2013-08-06 09:16:00,80.4,77.5,29.51,West,269,0.0,0.0,91,0.00,,,0.00,VWS V14.01,2013-08-06 13:16:00,
2013-08-06 09:20:00,80.5,77.4,29.52,West,269,0.0,0.0,90,0.00,,,0.00,VWS V14.01,2013-08-06 13:20:00,
2013-08-06 09:21:00,80.5,77.4,29.52,West,269,0.0,0.0,90,0.00,,,0.00,VWS V14.01,2013-08-06 13:21:00,
2013-08-06 09:25:00,80.8,77.7,29.52,West,269,0.0,0.0,90,0.00,,,0.00,VWS V14.01,2013-08-06 13:25:00,
2013-08-06 09:26:00,80.8,77.7,29.52,West,269,0.0,0.0,90,0.00,,,0.00,VWS V14.01,2013-08-06 13:26:00,
2013-08-06 09:30:00,81.4,78.2,29.53,West,269,0.0,0.0,90,0.00,,,0.00,VWS V14.01,2013-08-06 13:30:00,
2013-08-06 09:31:00,81.4,78.2,29.53,West,269,0.0,0.0,90,0.00,,,0.00,VWS V14.01,2013-08-06 13:31:00,
2013-08-06 09:35:00,81.5,77.8,29.53,West,269,0.0,0.0,88,0.00,,,0.00,VWS V14.01,2013-08-06 13:35:00,
2013-08-06 09:36:00,81.5,77.8,29.53,West,269,0.0,0.0,88,0.00,,,0.00,VWS V14.01,2013-08-06 13:36:00,
2013-08-06 09:40:00,81.8,78.0,29.53,West,269,0.0,0.0,88,0.00,,,0.00,VWS V14.01,2013-08-06 13:40:00,
2013-08-06 09:41:00,81.8,78.0,29.53,West,269,0.0,0.0,88,0.00,,,0.00,VWS V14.01,2013-08-06 13:41:00,
2013-08-06 09:45:00,82.3,78.0,29.53,West,269,0.0,0.0,87,0.00,,,0.00,VWS V14.01,2013-08-06 13:45:00,
2013-08-06 09:46:00,82.3,78.0,29.53,West,269,0.0,0.0,87,0.00,,,0.00,VWS V14.01,2013-08-06 13:46:00,
2013-08-06 09:50:00,82.4,77.9,29.53,West,269,0.0,0.0,86,0.01,,,0.01,VWS V14.01,2013-08-06 13:50:00,
2013-08-06 09:51:00,82.4,77.9,29.53,West,269,0.0,0.0,86,0.01,,,0.01,VWS V14.01,2013-08-06 13:51:00,
2013-08-06 09:55:00,82.9,78.1,29.53,West,269,0.0,0.0,85,0.01,,,0.01,VWS V14.01,2013-08-06 13:55:00,
2013-08-06 09:56:00,82.9,78.1,29.53,West,269,0.0,0.0,85,0.01,,,0.01,VWS V14.01,2013-08-06 13:56:00,
2013-08-06 10:00:00,83.0,78.1,29.54,West,269,0.0,0.0,85,0.01,,,0.01,VWS V14.01,2013-08-06 14:00:00,
2013-08-06 10:01:00,83.0,78.1,29.54,West,269,0.0,0.0,85,0.01,,,0.01,VWS V14.01,2013-08-06 14:01:00,
2013-08-06 10:05:00,83.4,78.1,29.54,West,269,0.0,0.0,84,0.01,,,0.01,VWS V14.01,2013-08-06 14:05:00,
2013-08-06 10:10:00,83.7,78.0,29.54,West,269,0.0,0.0,83,0.01,,,0.01,VWS V14.01,2013-08-06 14:10:00,
2013-08-06 10:11:00,83.7,77.9,29.54,West,269,0.0,0.0,83,0.01,,,0.01,VWS V14.01,2013-08-06 14:11:00,
2013-08-06 10:15:00,83.8,78.0,29.54,West,269,0.0,0.0,83,0.01,,,0.01,VWS V14.01,2013-08-06 14:15:00,
2013-08-06 10:16:00,83.8,78.0,29.54,West,269,0.0,0.0,83,0.01,,,0.01,VWS V14.01,2013-08-06 14:16:00,
2013-08-06 10:20:00,84.2,78.0,29.54,West,269,0.0,0.0,82,0.01,,,0.01,VWS V14.01,2013-08-06 14:20:00,
2013-08-06 10:21:00,84.2,78.0,29.54,West,269,0.0,0.0,82,0.01,,,0.01,VWS V14.01,2013-08-06 14:21:00,
2013-08-06 10:25:00,84.5,78.1,29.54,West,269,0.0,0.0,81,0.01,,,0.01,VWS V14.01,2013-08-06 14:25:00,
2013-08-06 10:26:00,84.5,78.1,29.54,West,269,0.0,0.0,81,0.01,,,0.01,VWS V14.01,2013-08-06 14:26:00,
2013-08-06 10:30:00,84.7,78.5,29.55,West,269,0.0,0.0,82,0.01,,,0.01,VWS V14.01,2013-08-06 14:30:00,
2013-08-06 10:31:00,84.7,78.5,29.55,West,269,0.0,0.0,82,0.01,,,0.01,VWS V14.01,2013-08-06 14:31:00,
2013-08-06 10:35:00,85.0,78.6,29.54,West,269,0.0,0.0,81,0.01,,,0.01,VWS V14.01,2013-08-06 14:35:00,
2013-08-06 10:36:00,85.0,78.6,29.54,West,269,0.0,0.0,81,0.01,,,0.01,VWS V14.01,2013-08-06 14:36:00,
2013-08-06 10:40:00,85.2,78.4,29.55,West,269,0.0,0.0,80,0.01,,,0.01,VWS V14.01,2013-08-06 14:40:00,
2013-08-06 10:41:00,85.2,78.4,29.55,West,269,0.0,0.0,80,0.01,,,0.01,VWS V14.01,2013-08-06 14:41:00,
2013-08-06 10:45:00,85.4,78.7,29.54,West,269,0.0,0.0,80,0.01,,,0.01,VWS V14.01,2013-08-06 14:45:00,
2013-08-06 10:50:00,85.6,78.7,29.55,West,269,0.0,0.0,80,0.01,,,0.01,VWS V14.01,2013-08-06 14:50:00,
2013-08-06 10:51:00,85.6,78.7,29.55,West,269,0.0,0.0,80,0.01,,,0.01,VWS V14.01,2013-08-06 14:51:00,
2013-08-06 10:55:00,85.7,78.7,29.55,West,269,0.0,0.0,80,0.00,,,0.01,VWS V14.01,2013-08-06 14:55:00,
2013-08-06 10:56:00,85.7,78.7,29.55,West,269,0.0,0.0,80,0.00,,,0.01,VWS V14.01,2013-08-06 14:56:00,
2013-08-06 11:00:00,85.7,78.2,29.55,West,269,0.0,0.0,78,0.00,,,0.01,VWS V14.01,2013-08-06 15:00:00,
2013-08-06 11:01:00,85.7,78.2,29.55,West,269,0.0,0.0,78,0.00,,,0.01,VWS V14.01,2013-08-06 15:01:00,
2013-08-06 11:05:00,85.9,78.6,29.55,West,269,0.0,0.0,79,0.00,,,0.01,VWS V14.01,2013-08-06 15:05:00,
2013-08-06 11:10:00,86.1,78.9,29.55,West,269,0.0,0.0,79,0.00,,,0.01,VWS V14.01,2013-08-06 15:10:00,
2013-08-06 11:11:00,86.1,78.9,29.55,West,269,0.0,0.0,79,0.00,,,0.01,VWS V14.01,2013-08-06 15:11:00,
2013-08-06 11:15:00,86.3,78.9,29.55,West,269,0.0,0.0,79,0.00,,,0.01,VWS V14.01,2013-08-06 15:15:00,
2013-08-06 11:16:00,86.3,78.9,29.55,West,269,0.0,0.0,79,0.00,,,0.01,VWS V14.01,2013-08-06 15:16:00,
2013-08-06 11:20:00,86.5,78.8,29.55,West,269,0.0,0.0,78,0.00,,,0.01,VWS V14.01,2013-08-06 15:20:00,
2013-08-06 11:21:00,86.5,78.8,29.55,West,269,0.0,0.0,78,0.00,,,0.01,VWS V14.01,2013-08-06 15:21:00,
2013-08-06 11:25:00,86.5,78.6,29.55,West,269,0.0,0.0,77,0.00,,,0.01,VWS V14.01,2013-08-06 15:25:00,
2013-08-06 11:26:00,86.5,78.6,29.55,West,269,0.0,0.0,77,0.00,,,0.01,VWS V14.01,2013-08-06 15:26:00,
2013-08-06 11:30:00,86.8,78.8,29.55,West,269,0.0,0.0,77,0.00,,,0.01,VWS V14.01,2013-08-06 15:30:00,
2013-08-06 11:31:00,86.8,78.8,29.55,West,269,0.0,0.0,77,0.00,,,0.01,VWS V14.01,2013-08-06 15:31:00,
2013-08-06 11:35:00,86.9,78.9,29.55,West,269,0.0,0.0,77,0.00,,,0.01,VWS V14.01,2013-08-06 15:35:00,
2013-08-06 11:36:00,86.9,78.9,29.55,West,269,0.0,0.0,77,0.00,,,0.01,VWS V14.01,2013-08-06 15:36:00,
2013-08-06 11:40:00,87.2,78.4,29.54,West,269,0.0,0.0,75,0.00,,,0.01,VWS V14.01,2013-08-06 15:40:00,
2013-08-06 11:41:00,87.2,78.4,29.54,West,269,0.0,0.0,75,0.00,,,0.01,VWS V14.01,2013-08-06 15:41:00,
2013-08-06 11:45:00,87.5,78.8,29.54,West,269,0.0,0.0,75,0.00,,,0.01,VWS V14.01,2013-08-06 15:45:00,
2013-08-06 11:46:00,87.5,78.8,29.54,West,269,0.0,0.0,75,0.00,,,0.01,VWS V14.01,2013-08-06 15:46:00,
2013-08-06 11:50:00,87.8,79.2,29.54,West,269,0.0,0.0,76,0.00,,,0.01,VWS V14.01,2013-08-06 15:50:00,
2013-08-06 11:51:00,87.8,79.2,29.54,West,269,0.0,0.0,76,0.00,,,0.01,VWS V14.01,2013-08-06 15:51:00,
2013-08-06 11:55:00,88.0,78.7,29.55,West,269,0.0,0.0,74,0.00,,,0.01,VWS V14.01,2013-08-06 15:55:00,
2013-08-06 11:56:00,88.0,78.7,29.55,West,269,0.0,0.0,74,0.00,,,0.01,VWS V14.01,2013-08-06 15:56:00,
2013-08-06 12:00:00,88.5,78.8,29.55,West,269,0.0,0.0,73,0.00,,,0.01,VWS V14.01,2013-08-06 16:00:00,
2013-08-06 12:01:00,88.5,78.8,29.55,West,269,0.0,0.0,73,0.00,,,0.01,VWS V14.01,2013-08-06 16:01:00,
2013-08-06 12:05:00,88.9,79.7,29.55,NE,52,0.0,0.0,74,0.00,,,0.01,VWS V14.01,2013-08-06 16:05:00,
2013-08-06 12:06:00,88.9,79.7,29.55,NE,52,0.0,0.0,74,0.00,,,0.01,VWS V14.01,2013-08-06 16:06:00,
2013-08-06 12:10:00,89.2,79.2,29.54,NE,52,0.0,0.0,73,0.00,,,0.01,VWS V14.01,2013-08-06 16:10:00,
2013-08-06 12:11:00,89.2,79.2,29.54,NE,52,0.0,0.0,73,0.00,,,0.01,VWS V14.01,2013-08-06 16:11:00,
2013-08-06 12:15:00,89.0,78.7,29.54,NE,52,0.0,0.0,72,0.00,,,0.01,VWS V14.01,2013-08-06 16:15:00,
2013-08-06 12:16:00,89.0,78.7,29.54,NE,52,0.0,0.0,72,0.00,,,0.01,VWS V14.01,2013-08-06 16:16:00,
2013-08-06 12:20:00,89.2,78.6,29.54,NE,52,0.0,0.0,71,0.00,,,0.01,VWS V14.01,2013-08-06 16:20:00,
2013-08-06 12:21:00,89.2,78.6,29.54,NE,52,0.0,0.0,71,0.00,,,0.01,VWS V14.01,2013-08-06 16:21:00,
2013-08-06 12:25:00,89.1,77.7,29.54,NE,52,0.0,0.0,69,0.00,,,0.01,VWS V14.01,2013-08-06 16:25:00,
2013-08-06 12:26:00,89.1,77.7,29.54,NE,52,0.0,0.0,69,0.00,,,0.01,VWS V14.01,2013-08-06 16:26:00,
2013-08-06 12:30:00,89.1,77.5,29.54,NE,52,0.0,0.0,69,0.00,,,0.01,VWS V14.01,2013-08-06 16:30:00,
2013-08-06 12:31:00,89.1,77.5,29.54,NE,52,0.0,0.0,69,0.00,,,0.01,VWS V14.01,2013-08-06 16:31:00,
2013-08-06 12:35:00,89.0,77.7,29.53,NE,52,0.0,0.0,70,0.00,,,0.01,VWS V14.01,2013-08-06 16:35:00,
2013-08-06 12:36:00,89.0,77.7,29.53,NE,52,0.0,0.0,70,0.00,,,0.01,VWS V14.01,2013-08-06 16:36:00,
2013-08-06 12:40:00,89.4,78.6,29.53,NE,52,0.0,0.0,71,0.00,,,0.01,VWS V14.01,2013-08-06 16:40:00,
2013-08-06 12:41:00,89.4,78.6,29.53,NE,52,0.0,0.0,71,0.00,,,0.01,VWS V14.01,2013-08-06 16:41:00,
2013-08-06 12:45:00,89.7,78.6,29.53,NNW,332,0.0,0.0,70,0.00,,,0.01,VWS V14.01,2013-08-06 16:45:00,
2013-08-06 12:50:00,89.9,78.5,29.53,NNW,332,0.0,0.0,69,0.00,,,0.01,VWS V14.01,2013-08-06 16:50:00,
2013-08-06 12:51:00,89.9,78.5,29.53,NNW,332,0.0,0.0,69,0.00,,,0.01,VWS V14.01,2013-08-06 16:51:00,
2013-08-06 12:55:00,89.9,77.6,29.53,NNW,332,0.0,0.0,67,0.00,,,0.01,VWS V14.01,2013-08-06 16:55:00,
2013-08-06 12:56:00,89.9,77.6,29.53,NNW,332,0.0,0.0,67,0.00,,,0.01,VWS V14.01,2013-08-06 16:56:00,
2013-08-06 13:00:00,90.4,78.7,29.53,NNW,332,0.0,0.0,69,0.00,,,0.01,VWS V14.01,2013-08-06 17:00:00,
2013-08-06 13:01:00,90.4,78.7,29.53,NNW,332,0.0,0.0,69,0.00,,,0.01,VWS V14.01,2013-08-06 17:01:00,
2013-08-06 13:05:00,90.2,77.7,29.54,NNW,332,0.0,0.0,67,0.00,,,0.01,VWS V14.01,2013-08-06 17:05:00,
2013-08-06 13:10:00,89.9,78.2,29.53,NNW,332,0.0,0.0,68,0.00,,,0.01,VWS V14.01,2013-08-06 17:10:00,
2013-08-06 13:11:00,89.9,78.2,29.53,NNW,332,0.0,0.0,68,0.00,,,0.01,VWS V14.01,2013-08-06 17:11:00,
2013-08-06 13:15:00,89.9,78.0,29.53,NNW,332,0.0,0.0,68,0.00,,,0.01,VWS V14.01,2013-08-06 17:15:00,
2013-08-06 13:16:00,89.9,78.0,29.53,NNW,332,0.0,0.0,68,0.00,,,0.01,VWS V14.01,2013-08-06 17:16:00,
2013-08-06 13:20:00,90.1,78.0,29.53,NNW,332,0.0,0.0,68,0.00,,,0.01,VWS V14.01,2013-08-06 17:20:00,
2013-08-06 13:21:00,90.1,78.0,29.53,NNW,332,0.0,0.0,68,0.00,,,0.01,VWS V14.01,2013-08-06 17:21:00,
2013-08-06 13:25:00,90.6,79.1,29.53,NNW,332,0.0,0.0,69,0.00,,,0.01,VWS V14.01,2013-08-06 17:25:00,
2013-08-06 13:26:00,90.6,79.1,29.53,NNW,332,0.0,0.0,69,0.00,,,0.01,VWS V14.01,2013-08-06 17:26:00,
2013-08-06 13:30:00,90.9,78.9,29.53,NNW,332,0.0,0.0,68,0.00,,,0.01,VWS V14.01,2013-08-06 17:30:00,
2013-08-06 13:31:00,90.9,78.9,29.53,NNW,332,0.0,0.0,68,0.00,,,0.01,VWS V14.01,2013-08-06 17:31:00,
2013-08-06 13:35:00,91.5,78.7,29.53,NNW,332,0.0,0.0,66,0.00,,,0.01,VWS V14.01,2013-08-06 17:35:00,
2013-08-06 13:36:00,91.5,78.7,29.53,NNW,332,0.0,0.0,66,0.00,,,0.01,VWS V14.01,2013-08-06 17:36:00,
2013-08-06 13:40:00,91.8,78.3,29.53,NNW,332,0.0,0.0,65,0.00,,,0.01,VWS V14.01,2013-08-06 17:40:00,
2013-08-06 13:41:00,91.8,78.3,29.53,NNW,332,0.0,0.0,65,0.00,,,0.01,VWS V14.01,2013-08-06 17:41:00,
2013-08-06 13:45:00,92.2,78.4,29.53,NNW,332,0.0,0.0,64,0.00,,,0.01,VWS V14.01,2013-08-06 17:45:00,
2013-08-06 13:46:00,92.2,78.4,29.53,NNW,332,0.0,0.0,64,0.00,,,0.01,VWS V14.01,2013-08-06 17:46:00,
2013-08-06 13:50:00,92.4,77.6,29.53,NNW,332,0.0,0.0,62,0.00,,,0.01,VWS V14.01,2013-08-06 17:50:00,
2013-08-06 13:51:00,92.4,77.6,29.53,NNW,332,0.0,0.0,62,0.00,,,0.01,VWS V14.01,2013-08-06 17:51:00,
2013-08-06 13:55:00,92.8,77.7,29.53,NNW,332,0.0,0.0,62,0.00,,,0.01,VWS V14.01,2013-08-06 17:55:00,
2013-08-06 13:56:00,92.8,77.7,29.53,NNW,332,0.0,0.0,62,0.00,,,0.01,VWS V14.01,2013-08-06 17:56:00,
2013-08-06 14:00:00,93.3,78.7,29.53,NNW,332,0.0,0.0,63,0.00,,,0.01,VWS V14.01,2013-08-06 18:00:00,
2013-08-06 14:01:00,93.3,78.7,29.53,NNW,332,0.0,0.0,63,0.00,,,0.01,VWS V14.01,2013-08-06 18:01:00,
2013-08-06 14:05:00,93.7,77.7,29.53,NNW,332,0.0,0.0,60,0.00,,,0.01,VWS V14.01,2013-08-06 18:05:00,
2013-08-06 14:06:00,93.7,77.7,29.53,NNW,332,0.0,0.0,60,0.00,,,0.01,VWS V14.01,2013-08-06 18:06:00,
2013-08-06 14:10:00,94.2,77.5,29.53,NNW,332,0.0,0.0,59,0.00,,,0.01,VWS V14.01,2013-08-06 18:10:00,
2013-08-06 14:11:00,94.2,77.5,29.53,NNW,332,0.0,0.0,59,0.00,,,0.01,VWS V14.01,2013-08-06 18:11:00,
2013-08-06 14:15:00,94.0,75.9,29.53,NNW,332,0.0,0.0,56,0.00,,,0.01,VWS V14.01,2013-08-06 18:15:00,
2013-08-06 14:16:00,94.0,75.9,29.53,NNW,332,0.0,0.0,56,0.00,,,0.01,VWS V14.01,2013-08-06 18:16:00,
2013-08-06 14:20:00,94.0,76.9,29.52,NNW,332,0.0,0.0,58,0.00,,,0.01,VWS V14.01,2013-08-06 18:20:00,
2013-08-06 14:21:00,94.0,76.9,29.52,NNW,332,0.0,0.0,58,0.00,,,0.01,VWS V14.01,2013-08-06 18:21:00,
2013-08-06 14:25:00,94.1,77.0,29.52,NNW,332,0.0,0.0,58,0.00,,,0.01,VWS V14.01,2013-08-06 18:25:00,
2013-08-06 14:26:00,94.1,77.0,29.52,NNW,332,0.0,0.0,58,0.00,,,0.01,VWS V14.01,2013-08-06 18:26:00,
2013-08-06 14:30:00,94.1,77.5,29.52,NNW,332,0.0,0.0,59,0.00,,,0.01,VWS V14.01,2013-08-06 18:30:00,
2013-08-06 14:31:00,94.1,77.5,29.52,NNW,332,0.0,0.0,59,0.00,,,0.01,VWS V14.01,2013-08-06 18:31:00,
2013-08-06 14:35:00,94.4,76.8,29.52,West,280,0.0,0.0,57,0.00,,,0.01,VWS V14.01,2013-08-06 18:35:00,
2013-08-06 14:36:00,94.4,76.8,29.52,West,280,0.0,0.0,57,0.00,,,0.01,VWS V14.01,2013-08-06 18:36:00,
2013-08-06 14:40:00,94.7,76.4,29.52,West,280,0.0,0.0,56,0.00,,,0.01,VWS V14.01,2013-08-06 18:40:00,
2013-08-06 14:41:00,94.7,76.4,29.52,West,280,0.0,0.0,56,0.00,,,0.01,VWS V14.01,2013-08-06 18:41:00,
2013-08-06 14:45:00,94.3,77.2,29.51,West,280,0.0,0.0,58,0.00,,,0.01,VWS V14.01,2013-08-06 18:45:00,
2013-08-06 14:46:00,94.3,77.2,29.51,West,280,0.0,0.0,58,0.00,,,0.01,VWS V14.01,2013-08-06 18:46:00,
2013-08-06 14:50:00,94.2,76.7,29.51,West,280,0.0,0.0,57,0.00,,,0.01,VWS V14.01,2013-08-06 18:50:00,
2013-08-06 14:51:00,94.2,76.7,29.51,West,280,0.0,0.0,57,0.00,,,0.01,VWS V14.01,2013-08-06 18:51:00,
2013-08-06 14:55:00,94.7,76.2,29.51,West,280,0.0,0.0,55,0.00,,,0.01,VWS V14.01,2013-08-06 18:55:00,
2013-08-06 14:56:00,94.7,76.2,29.51,West,280,0.0,0.0,55,0.00,,,0.01,VWS V14.01,2013-08-06 18:56:00,
2013-08-06 15:00:00,95.0,78.0,29.51,West,280,0.0,0.0,58,0.00,,,0.01,VWS V14.01,2013-08-06 19:00:00,
2013-08-06 15:01:00,95.0,78.0,29.51,West,280,0.0,0.0,58,0.00,,,0.01,VWS V14.01,2013-08-06 19:01:00,
2013-08-06 15:05:00,95.0,77.1,29.51,West,280,0.0,0.0,56,0.00,,,0.01,VWS V14.01,2013-08-06 19:05:00,
2013-08-06 15:10:00,95.8,76.7,29.50,West,280,0.0,0.0,54,0.00,,,0.01,VWS V14.01,2013-08-06 19:10:00,
2013-08-06 15:11:00,95.8,76.7,29.51,West,280,0.0,0.0,54,0.00,,,0.01,VWS V14.01,2013-08-06 19:11:00,
2013-08-06 15:15:00,95.4,76.2,29.51,West,280,0.0,0.0,54,0.00,,,0.01,VWS V14.01,2013-08-06 19:15:00,
2013-08-06 15:16:00,95.4,76.2,29.51,West,280,0.0,0.0,54,0.00,,,0.01,VWS V14.01,2013-08-06 19:16:00,
2013-08-06 15:20:00,95.5,76.6,29.51,West,280,0.0,0.0,55,0.00,,,0.01,VWS V14.01,2013-08-06 19:20:00,
2013-08-06 15:21:00,95.5,76.6,29.51,West,280,0.0,0.0,55,0.00,,,0.01,VWS V14.01,2013-08-06 19:21:00,
2013-08-06 15:25:00,95.4,76.5,29.50,West,280,0.0,0.0,55,0.00,,,0.01,VWS V14.01,2013-08-06 19:25:00,
2013-08-06 15:26:00,95.4,76.5,29.51,West,280,0.0,0.0,55,0.00,,,0.01,VWS V14.01,2013-08-06 19:26:00,
2013-08-06 15:30:00,95.9,76.5,29.51,West,280,0.0,0.0,54,0.00,,,0.01,VWS V14.01,2013-08-06 19:30:00,
2013-08-06 15:31:00,95.9,76.5,29.51,West,280,0.0,0.0,54,0.00,,,0.01,VWS V14.01,2013-08-06 19:31:00,
2013-08-06 15:35:00,95.9,75.5,29.51,West,280,0.0,0.0,52,0.00,,,0.01,VWS V14.01,2013-08-06 19:35:00,
2013-08-06 15:36:00,95.9,75.5,29.51,West,280,0.0,0.0,52,0.00,,,0.01,VWS V14.01,2013-08-06 19:36:00,
2013-08-06 15:40:00,96.0,76.5,29.50,West,280,0.0,0.0,54,0.00,,,0.01,VWS V14.01,2013-08-06 19:40:00,
2013-08-06 15:41:00,96.0,76.5,29.51,West,280,0.0,0.0,54,0.00,,,0.01,VWS V14.01,2013-08-06 19:41:00,
2013-08-06 15:45:00,95.1,76.8,29.50,West,280,0.0,0.0,56,0.00,,,0.01,VWS V14.01,2013-08-06 19:45:00,
2013-08-06 15:46:00,95.1,76.8,29.50,West,280,0.0,0.0,56,0.00,,,0.01,VWS V14.01,2013-08-06 19:46:00,
2013-08-06 15:50:00,95.0,77.3,29.50,West,280,0.0,0.0,57,0.00,,,0.01,VWS V14.01,2013-08-06 19:50:00,
2013-08-06 15:51:00,95.0,77.3,29.50,West,280,0.0,0.0,57,0.00,,,0.01,VWS V14.01,2013-08-06 19:51:00,
2013-08-06 15:55:00,94.8,77.5,29.50,West,280,0.0,0.0,58,0.00,,,0.01,VWS V14.01,2013-08-06 19:55:00,
2013-08-06 15:56:00,94.8,77.5,29.50,West,280,0.0,0.0,58,0.00,,,0.01,VWS V14.01,2013-08-06 19:56:00,
2013-08-06 16:00:00,94.5,78.7,29.50,West,280,0.0,0.0,60,0.00,,,0.01,VWS V14.01,2013-08-06 20:00:00,
2013-08-06 16:01:00,94.5,78.7,29.50,West,280,0.0,0.0,60,0.00,,,0.01,VWS V14.01,2013-08-06 20:01:00,
2013-08-06 16:05:00,94.2,78.8,29.50,North,11,0.0,2.7,61,0.00,,,0.01,VWS V14.01,2013-08-06 20:05:00,
2013-08-06 16:06:00,94.2,78.8,29.50,North,11,0.0,2.7,61,0.00,,,0.01,VWS V14.01,2013-08-06 20:06:00,
2013-08-06 16:10:00,93.1,78.8,29.50,North,11,0.0,0.0,63,0.00,,,0.01,VWS V14.01,2013-08-06 20:10:00,
2013-08-06 16:11:00,93.1,78.8,29.50,North,11,0.0,0.0,63,0.00,,,0.01,VWS V14.01,2013-08-06 20:11:00,
2013-08-06 16:15:00,92.7,79.2,29.49,North,11,0.0,0.0,65,0.00,,,0.01,VWS V14.01,2013-08-06 20:15:00,
2013-08-06 16:16:00,92.7,79.2,29.49,North,11,0.0,0.0,65,0.00,,,0.01,VWS V14.01,2013-08-06 20:16:00,
2013-08-06 16:20:00,91.9,79.2,29.49,North,11,0.0,0.0,67,0.00,,,0.01,VWS V14.01,2013-08-06 20:20:00,
2013-08-06 16:21:00,91.9,79.2,29.49,North,11,0.0,0.0,67,0.00,,,0.01,VWS V14.01,2013-08-06 20:21:00,
2013-08-06 16:25:00,91.7,79.4,29.50,North,11,0.0,0.0,68,0.00,,,0.01,VWS V14.01,2013-08-06 20:25:00,
2013-08-06 16:26:00,91.7,79.4,29.50,North,11,0.0,0.0,68,0.00,,,0.01,VWS V14.01,2013-08-06 20:26:00,
2013-08-06 16:30:00,91.8,79.9,29.50,North,11,0.0,0.0,68,0.00,,,0.01,VWS V14.01,2013-08-06 20:30:00,
2013-08-06 16:31:00,91.8,79.9,29.50,North,11,0.0,0.0,68,0.00,,,0.01,VWS V14.01,2013-08-06 20:31:00,
2013-08-06 16:35:00,91.3,79.8,29.49,North,11,0.0,0.0,69,0.00,,,0.01,VWS V14.01,2013-08-06 20:35:00,
2013-08-06 16:36:00,91.3,79.8,29.49,North,11,0.0,0.0,69,0.00,,,0.01,VWS V14.01,2013-08-06 20:36:00,
2013-08-06 16:40:00,90.9,80.0,29.49,North,11,0.0,0.0,70,0.00,,,0.01,VWS V14.01,2013-08-06 20:40:00,
2013-08-06 16:41:00,90.9,80.0,29.49,North,11,0.0,0.0,70,0.00,,,0.01,VWS V14.01,2013-08-06 20:41:00,
2013-08-06 16:45:00,90.8,79.8,29.49,North,11,0.0,0.0,70,0.00,,,0.01,VWS V14.01,2013-08-06 20:45:00,
2013-08-06 16:46:00,90.8,79.8,29.49,North,11,0.0,0.0,70,0.00,,,0.01,VWS V14.01,2013-08-06 20:46:00,
2013-08-06 16:50:00,90.5,79.7,29.50,North,11,0.0,0.0,71,0.00,,,0.01,VWS V14.01,2013-08-06 20:50:00,
2013-08-06 16:51:00,90.5,79.7,29.50,North,11,0.0,0.0,71,0.00,,,0.01,VWS V14.01,2013-08-06 20:51:00,
2013-08-06 16:55:00,90.4,79.8,29.50,North,11,0.0,0.0,71,0.00,,,0.01,VWS V14.01,2013-08-06 20:55:00,
2013-08-06 16:56:00,90.4,79.8,29.50,North,11,0.0,0.0,71,0.00,,,0.01,VWS V14.01,2013-08-06 20:56:00,
2013-08-06 17:00:00,90.4,79.9,29.50,North,11,0.0,0.0,72,0.00,,,0.01,VWS V14.01,2013-08-06 21:00:00,
2013-08-06 17:01:00,90.4,79.9,29.50,North,11,0.0,0.0,72,0.00,,,0.01,VWS V14.01,2013-08-06 21:01:00,
2013-08-06 17:05:00,90.4,79.6,29.50,North,11,0.0,0.0,71,0.00,,,0.01,VWS V14.01,2013-08-06 21:05:00,
2013-08-06 17:10:00,90.2,78.5,29.50,North,359,0.0,2.9,69,0.00,,,0.01,VWS V14.01,2013-08-06 21:10:00,
2013-08-06 17:11:00,90.2,78.5,29.50,North,359,0.0,2.9,69,0.00,,,0.01,VWS V14.01,2013-08-06 21:11:00,
2013-08-06 17:15:00,89.7,78.2,29.50,NW,315,0.0,0.0,69,0.00,,,0.01,VWS V14.01,2013-08-06 21:15:00,
2013-08-06 17:16:00,89.7,78.2,29.50,NW,315,0.0,0.0,69,0.00,,,0.01,VWS V14.01,2013-08-06 21:16:00,
2013-08-06 17:20:00,89.4,78.4,29.50,North,359,0.0,0.0,70,0.00,,,0.01,VWS V14.01,2013-08-06 21:20:00,
2013-08-06 17:21:00,89.4,78.4,29.50,North,359,0.0,0.0,70,0.00,,,0.01,VWS V14.01,2013-08-06 21:21:00,
2013-08-06 17:25:00,88.8,78.2,29.50,North,359,0.0,0.0,71,0.00,,,0.01,VWS V14.01,2013-08-06 21:25:00,
2013-08-06 17:26:00,88.8,78.2,29.50,North,359,0.0,0.0,71,0.00,,,0.01,VWS V14.01,2013-08-06 21:26:00,
2013-08-06 17:30:00,88.4,78.2,29.49,North,359,0.0,0.0,72,0.00,,,0.01,VWS V14.01,2013-08-06 21:30:00,
2013-08-06 17:31:00,88.4,78.2,29.49,North,359,0.0,0.0,72,0.00,,,0.01,VWS V14.01,2013-08-06 21:31:00,
2013-08-06 17:35:00,88.4,78.3,29.49,North,359,0.0,0.0,72,0.00,,,0.01,VWS V14.01,2013-08-06 21:35:00,
2013-08-06 17:36:00,88.4,78.3,29.49,North,359,0.0,0.0,72,0.00,,,0.01,VWS V14.01,2013-08-06 21:36:00,
2013-08-06 17:40:00,88.1,78.1,29.49,North,359,0.0,0.0,72,0.00,,,0.01,VWS V14.01,2013-08-06 21:40:00,
2013-08-06 17:41:00,88.1,78.1,29.49,North,359,0.0,0.0,72,0.00,,,0.01,VWS V14.01,2013-08-06 21:41:00,
2013-08-06 17:45:00,88.0,78.3,29.48,North,359,0.0,0.0,73,0.00,,,0.01,VWS V14.01,2013-08-06 21:45:00,
2013-08-06 17:46:00,88.0,78.3,29.48,North,359,0.0,0.0,73,0.00,,,0.01,VWS V14.01,2013-08-06 21:46:00,
2013-08-06 17:50:00,87.8,78.4,29.48,North,359,0.0,0.0,74,0.00,,,0.01,VWS V14.01,2013-08-06 21:50:00,
2013-08-06 17:51:00,87.8,78.4,29.48,North,359,0.0,0.0,74,0.00,,,0.01,VWS V14.01,2013-08-06 21:51:00,
2013-08-06 17:55:00,87.9,78.8,29.48,North,359,0.0,0.0,75,0.00,,,0.01,VWS V14.01,2013-08-06 21:55:00,
2013-08-06 17:56:00,87.9,78.8,29.48,North,359,0.0,0.0,75,0.00,,,0.01,VWS V14.01,2013-08-06 21:56:00,
2013-08-06 18:00:00,88.0,79.0,29.48,North,359,0.0,0.0,75,0.00,,,0.01,VWS V14.01,2013-08-06 22:00:00,
2013-08-06 18:01:00,88.0,79.0,29.48,North,359,0.0,0.0,75,0.00,,,0.01,VWS V14.01,2013-08-06 22:01:00,
2013-08-06 18:05:00,88.2,79.1,29.48,North,359,0.0,0.0,74,0.00,,,0.01,VWS V14.01,2013-08-06 22:05:00,
2013-08-06 18:06:00,88.2,79.1,29.48,North,359,0.0,0.0,74,0.00,,,0.01,VWS V14.01,2013-08-06 22:06:00,
2013-08-06 18:10:00,88.4,79.2,29.49,North,359,0.0,0.0,74,0.00,,,0.01,VWS V14.01,2013-08-06 22:10:00,
2013-08-06 18:11:00,88.4,79.2,29.49,North,359,0.0,0.0,74,0.00,,,0.01,VWS V14.01,2013-08-06 22:11:00,
2013-08-06 18:15:00,88.5,79.2,29.50,North,359,0.0,0.0,74,0.00,,,0.01,VWS V14.01,2013-08-06 22:15:00,
2013-08-06 18:16:00,88.5,79.2,29.50,North,359,0.0,0.0,74,0.00,,,0.01,VWS V14.01,2013-08-06 22:16:00,
2013-08-06 18:20:00,88.5,79.1,29.50,North,359,0.0,0.0,74,0.00,,,0.01,VWS V14.01,2013-08-06 22:20:00,
2013-08-06 18:21:00,88.5,79.1,29.50,North,359,0.0,0.0,74,0.00,,,0.01,VWS V14.01,2013-08-06 22:21:00,
2013-08-06 18:25:00,88.0,78.8,29.50,North,359,0.0,0.0,74,0.00,,,0.01,VWS V14.01,2013-08-06 22:25:00,
2013-08-06 18:26:00,88.0,78.8,29.50,North,359,0.0,0.0,74,0.00,,,0.01,VWS V14.01,2013-08-06 22:26:00,
2013-08-06 18:30:00,88.0,79.3,29.50,North,359,0.0,0.0,76,0.00,,,0.01,VWS V14.01,2013-08-06 22:30:00,
2013-08-06 18:31:00,88.0,79.3,29.50,North,359,0.0,0.0,76,0.00,,,0.01,VWS V14.01,2013-08-06 22:31:00,
2013-08-06 18:35:00,87.8,79.4,29.50,North,359,0.0,0.0,76,0.00,,,0.01,VWS V14.01,2013-08-06 22:35:00,
2013-08-06 18:36:00,87.8,79.4,29.50,North,359,0.0,0.0,76,0.00,,,0.01,VWS V14.01,2013-08-06 22:36:00,
2013-08-06 18:40:00,88.0,79.4,29.50,North,359,0.0,0.0,76,0.00,,,0.01,VWS V14.01,2013-08-06 22:40:00,
2013-08-06 18:45:00,88.0,79.4,29.50,North,359,0.0,0.0,76,0.00,,,0.01,VWS V14.01,2013-08-06 22:45:00,
2013-08-06 18:46:00,88.0,79.4,29.50,North,359,0.0,0.0,76,0.00,,,0.01,VWS V14.01,2013-08-06 22:46:00,
2013-08-06 18:50:00,88.2,79.3,29.50,North,359,0.0,0.0,75,0.00,,,0.01,VWS V14.01,2013-08-06 22:50:00,
2013-08-06 18:51:00,88.2,79.3,29.50,North,359,0.0,0.0,75,0.00,,,0.01,VWS V14.01,2013-08-06 22:51:00,
2013-08-06 18:55:00,88.5,79.2,29.50,North,359,0.0,0.0,74,0.00,,,0.01,VWS V14.01,2013-08-06 22:55:00,
2013-08-06 18:56:00,88.5,79.2,29.50,North,359,0.0,0.0,74,0.00,,,0.01,VWS V14.01,2013-08-06 22:56:00,
2013-08-06 19:00:00,88.3,79.0,29.50,North,359,0.0,0.0,74,0.00,,,0.01,VWS V14.01,2013-08-06 23:00:00,
2013-08-06 19:01:00,88.3,79.0,29.50,North,359,0.0,0.0,74,0.00,,,0.01,VWS V14.01,2013-08-06 23:01:00,
2013-08-06 19:05:00,88.0,78.9,29.50,North,359,0.0,0.0,74,0.00,,,0.01,VWS V14.01,2013-08-06 23:05:00,
2013-08-06 19:10:00,87.9,78.7,29.50,North,359,0.0,0.0,74,0.00,,,0.01,VWS V14.01,2013-08-06 23:10:00,
2013-08-06 19:15:00,87.7,78.7,29.50,North,359,0.0,0.0,75,0.00,,,0.01,VWS V14.01,2013-08-06 23:15:00,
2013-08-06 19:16:00,87.7,78.7,29.50,North,359,0.0,0.0,75,0.00,,,0.01,VWS V14.01,2013-08-06 23:16:00,
2013-08-06 19:20:00,87.7,78.6,29.50,North,359,0.0,0.0,75,0.00,,,0.01,VWS V14.01,2013-08-06 23:20:00,
2013-08-06 19:21:00,87.7,78.6,29.51,North,359,0.0,0.0,75,0.00,,,0.01,VWS V14.01,2013-08-06 23:21:00,
2013-08-06 19:25:00,87.5,78.6,29.51,North,359,0.0,0.0,75,0.00,,,0.01,VWS V14.01,2013-08-06 23:25:00,
2013-08-06 19:26:00,87.5,78.6,29.51,North,359,0.0,0.0,75,0.00,,,0.01,VWS V14.01,2013-08-06 23:26:00,
2013-08-06 19:30:00,87.2,78.6,29.51,North,359,0.0,0.0,76,0.00,,,0.01,VWS V14.01,2013-08-06 23:30:00,
2013-08-06 19:31:00,87.2,78.6,29.51,North,359,0.0,0.0,76,0.00,,,0.01,VWS V14.01,2013-08-06 23:31:00,
2013-08-06 19:35:00,87.1,78.7,29.51,North,359,0.0,0.0,76,0.00,,,0.01,VWS V14.01,2013-08-06 23:35:00,
2013-08-06 19:36:00,87.1,78.7,29.51,North,359,0.0,0.0,76,0.00,,,0.01,VWS V14.01,2013-08-06 23:36:00,
2013-08-06 19:40:00,87.0,78.8,29.51,North,359,0.0,0.0,77,0.00,,,0.01,VWS V14.01,2013-08-06 23:40:00,
2013-08-06 19:41:00,87.0,78.8,29.51,North,359,0.0,0.0,77,0.00,,,0.01,VWS V14.01,2013-08-06 23:41:00,
2013-08-06 19:45:00,86.9,78.8,29.51,North,359,0.0,0.0,77,0.00,,,0.01,VWS V14.01,2013-08-06 23:45:00,
2013-08-06 19:46:00,86.9,78.8,29.51,North,359,0.0,0.0,77,0.00,,,0.01,VWS V14.01,2013-08-06 23:46:00,
2013-08-06 19:50:00,86.8,78.9,29.51,North,359,0.0,0.0,78,0.00,,,0.01,VWS V14.01,2013-08-06 23:50:00,
2013-08-06 19:55:00,86.5,78.9,29.51,North,359,0.0,0.0,78,0.00,,,0.01,VWS V14.01,2013-08-06 23:55:00,
2013-08-06 19:56:00,86.5,78.9,29.51,North,359,0.0,0.0,78,0.00,,,0.01,VWS V14.01,2013-08-06 23:56:00,
2013-08-06 20:00:00,86.3,78.6,29.51,North,359,0.0,0.0,78,0.00,,,0.01,VWS V14.01,2013-08-07 00:00:00,
2013-08-06 20:01:00,86.3,78.6,29.51,North,359,0.0,0.0,78,0.00,,,0.01,VWS V14.01,2013-08-07 00:01:00,
2013-08-06 20:05:00,86.3,78.6,29.51,North,359,0.0,0.0,78,0.00,,,0.01,VWS V14.01,2013-08-07 00:05:00,
2013-08-06 20:06:00,86.3,78.6,29.51,North,359,0.0,0.0,78,0.00,,,0.01,VWS V14.01,2013-08-07 00:06:00,
2013-08-06 20:10:00,85.8,78.3,29.51,North,359,0.0,0.0,78,0.00,,,0.01,VWS V14.01,2013-08-07 00:10:00,
2013-08-06 20:11:00,85.8,78.3,29.51,North,359,0.0,0.0,78,0.00,,,0.01,VWS V14.01,2013-08-07 00:11:00,
2013-08-06 20:15:00,86.0,78.6,29.51,North,359,0.0,0.0,79,0.00,,,0.01,VWS V14.01,2013-08-07 00:15:00,
2013-08-06 20:16:00,86.0,78.6,29.51,North,359,0.0,0.0,79,0.00,,,0.01,VWS V14.01,2013-08-07 00:16:00,
2013-08-06 20:20:00,85.7,78.2,29.51,North,359,0.0,0.0,78,0.00,,,0.01,VWS V14.01,2013-08-07 00:20:00,
2013-08-06 20:21:00,85.7,78.2,29.51,North,359,0.0,0.0,78,0.00,,,0.01,VWS V14.01,2013-08-07 00:21:00,
2013-08-06 20:25:00,85.8,78.4,29.51,North,359,0.0,0.0,79,0.00,,,0.01,VWS V14.01,2013-08-07 00:25:00,
2013-08-06 20:26:00,85.8,78.4,29.51,North,359,0.0,0.0,79,0.00,,,0.01,VWS V14.01,2013-08-07 00:26:00,
2013-08-06 20:30:00,85.4,78.0,29.51,North,359,0.0,0.0,78,0.00,,,0.01,VWS V14.01,2013-08-07 00:30:00,
2013-08-06 20:31:00,85.4,78.0,29.51,North,359,0.0,0.0,78,0.00,,,0.01,VWS V14.01,2013-08-07 00:31:00,
2013-08-06 20:35:00,85.4,78.1,29.51,North,359,0.0,0.0,79,0.00,,,0.01,VWS V14.01,2013-08-07 00:35:00,
2013-08-06 20:36:00,85.4,78.1,29.51,North,359,0.0,0.0,79,0.00,,,0.01,VWS V14.01,2013-08-07 00:36:00,
2013-08-06 20:40:00,85.2,78.1,29.52,North,359,0.0,0.0,79,0.00,,,0.01,VWS V14.01,2013-08-07 00:40:00,
2013-08-06 20:41:00,85.2,78.1,29.52,North,359,0.0,0.0,79,0.00,,,0.01,VWS V14.01,2013-08-07 00:41:00,
2013-08-06 20:45:00,85.2,78.2,29.51,North,359,0.0,0.0,80,0.00,,,0.01,VWS V14.01,2013-08-07 00:45:00,
2013-08-06 20:46:00,85.2,78.2,29.51,North,359,0.0,0.0,80,0.00,,,0.01,VWS V14.01,2013-08-07 00:46:00,
2013-08-06 20:50:00,85.0,78.2,29.52,North,359,0.0,0.0,80,0.00,,,0.01,VWS V14.01,2013-08-07 00:50:00,
2013-08-06 20:51:00,85.0,78.2,29.52,North,359,0.0,0.0,80,0.00,,,0.01,VWS V14.01,2013-08-07 00:51:00,
2013-08-06 20:55:00,85.0,78.7,29.52,North,359,0.0,0.0,81,0.00,,,0.01,VWS V14.01,2013-08-07 00:55:00,
2013-08-06 20:56:00,85.0,78.7,29.52,North,359,0.0,0.0,81,0.00,,,0.01,VWS V14.01,2013-08-07 00:56:00,
2013-08-06 21:00:00,84.8,78.5,29.52,North,359,0.0,0.0,82,0.00,,,0.01,VWS V14.01,2013-08-07 01:00:00,
2013-08-06 21:01:00,84.8,78.5,29.52,North,359,0.0,0.0,82,0.00,,,0.01,VWS V14.01,2013-08-07 01:01:00,
2013-08-06 21:05:00,84.8,78.6,29.52,North,359,0.0,0.0,82,0.00,,,0.01,VWS V14.01,2013-08-07 01:05:00,
2013-08-06 21:10:00,84.8,78.8,29.52,North,359,0.0,0.0,82,0.00,,,0.01,VWS V14.01,2013-08-07 01:10:00,
2013-08-06 21:11:00,84.8,78.8,29.52,North,359,0.0,0.0,82,0.00,,,0.01,VWS V14.01,2013-08-07 01:11:00,
2013-08-06 21:15:00,84.6,78.7,29.52,North,359,0.0,0.0,83,0.00,,,0.01,VWS V14.01,2013-08-07 01:15:00,
2013-08-06 21:16:00,84.6,78.7,29.52,North,359,0.0,0.0,83,0.00,,,0.01,VWS V14.01,2013-08-07 01:16:00,
2013-08-06 21:20:00,84.6,79.1,29.52,North,359,0.0,0.0,84,0.00,,,0.01,VWS V14.01,2013-08-07 01:20:00,
2013-08-06 21:21:00,84.6,79.1,29.52,North,359,0.0,0.0,84,0.00,,,0.01,VWS V14.01,2013-08-07 01:21:00,
2013-08-06 21:25:00,84.6,79.1,29.53,North,359,0.0,0.0,84,0.00,,,0.01,VWS V14.01,2013-08-07 01:25:00,
2013-08-06 21:26:00,84.6,79.1,29.53,North,359,0.0,0.0,84,0.00,,,0.01,VWS V14.01,2013-08-07 01:26:00,
2013-08-06 21:30:00,84.4,79.1,29.52,North,359,0.0,0.0,84,0.00,,,0.01,VWS V14.01,2013-08-07 01:30:00,
2013-08-06 21:31:00,84.4,79.1,29.52,North,359,0.0,0.0,84,0.00,,,0.01,VWS V14.01,2013-08-07 01:31:00,
2013-08-06 21:35:00,84.4,79.3,29.52,North,359,0.0,0.0,85,0.00,,,0.01,VWS V14.01,2013-08-07 01:35:00,
2013-08-06 21:36:00,84.4,79.3,29.52,North,359,0.0,0.0,85,0.00,,,0.01,VWS V14.01,2013-08-07 01:36:00,
2013-08-06 21:40:00,84.2,79.1,29.52,North,359,0.0,0.0,85,0.00,,,0.01,VWS V14.01,2013-08-07 01:40:00,
2013-08-06 21:41:00,84.2,79.1,29.52,North,359,0.0,0.0,85,0.00,,,0.01,VWS V14.01,2013-08-07 01:41:00,
2013-08-06 21:45:00,84.3,79.3,29.53,North,359,0.0,0.0,85,0.00,,,0.01,VWS V14.01,2013-08-07 01:45:00,
2013-08-06 21:46:00,84.3,79.3,29.53,North,359,0.0,0.0,85,0.00,,,0.01,VWS V14.01,2013-08-07 01:46:00,
2013-08-06 22:00:00,84.0,79.2,29.53,North,359,0.0,0.0,86,0.00,,,0.01,VWS V14.01,2013-08-07 02:00:00,
2013-08-06 22:02:00,84.0,79.2,29.53,North,359,0.0,0.0,86,0.00,,,0.01,VWS V14.01,2013-08-07 02:02:00,
2013-08-06 22:05:00,84.0,79.3,29.53,North,359,0.0,0.0,86,0.00,,,0.01,VWS V14.01,2013-08-07 02:05:00,
2013-08-06 22:07:00,84.2,79.4,29.53,North,359,0.0,0.0,86,0.00,,,0.01,VWS V14.01,2013-08-07 02:07:00,
2013-08-06 22:10:00,84.1,79.4,29.53,North,359,0.0,0.0,86,0.00,,,0.01,VWS V14.01,2013-08-07 02:10:00,
2013-08-06 22:12:00,84.1,79.4,29.53,North,359,0.0,0.0,86,0.00,,,0.01,VWS V14.01,2013-08-07 02:12:00,
2013-08-06 22:15:00,83.9,79.2,29.53,North,359,0.0,0.0,86,0.00,,,0.01,VWS V14.01,2013-08-07 02:15:00,
2013-08-06 22:17:00,84.0,79.3,29.53,North,359,0.0,0.0,86,0.00,,,0.01,VWS V14.01,2013-08-07 02:17:00,
2013-08-06 22:20:00,83.9,79.3,29.53,North,359,0.0,0.0,86,0.00,,,0.01,VWS V14.01,2013-08-07 02:20:00,
2013-08-06 22:22:00,83.9,79.3,29.53,North,359,0.0,0.0,86,0.00,,,0.01,VWS V14.01,2013-08-07 02:22:00,
2013-08-06 22:25:00,83.8,79.2,29.53,North,359,0.0,0.0,86,0.00,,,0.01,VWS V14.01,2013-08-07 02:25:00,
2013-08-06 22:27:00,83.9,79.3,29.53,North,359,0.0,0.0,86,0.00,,,0.01,VWS V14.01,2013-08-07 02:27:00,
2013-08-06 22:30:00,83.7,79.1,29.53,North,359,0.0,0.0,86,0.00,,,0.01,VWS V14.01,2013-08-07 02:30:00,
2013-08-06 22:32:00,83.7,79.1,29.53,North,359,0.0,0.0,86,0.00,,,0.01,VWS V14.01,2013-08-07 02:32:00,
2013-08-06 22:35:00,83.7,79.2,29.53,North,359,0.0,0.0,86,0.00,,,0.01,VWS V14.01,2013-08-07 02:35:00,
2013-08-06 22:37:00,83.8,79.3,29.53,North,359,0.0,0.0,86,0.00,,,0.01,VWS V14.01,2013-08-07 02:37:00,
2013-08-06 22:40:00,83.6,79.2,29.53,North,359,0.0,0.0,87,0.00,,,0.01,VWS V14.01,2013-08-07 02:40:00,
2013-08-06 22:42:00,83.6,79.2,29.53,North,359,0.0,0.0,87,0.00,,,0.01,VWS V14.01,2013-08-07 02:42:00,
2013-08-06 22:45:00,83.4,79.1,29.53,North,359,0.0,0.0,87,0.00,,,0.01,VWS V14.01,2013-08-07 02:45:00,
2013-08-06 22:47:00,83.6,79.3,29.53,North,359,0.0,0.0,87,0.00,,,0.01,VWS V14.01,2013-08-07 02:47:00,
2013-08-06 22:50:00,83.5,79.2,29.53,North,359,0.0,0.0,87,0.00,,,0.01,VWS V14.01,2013-08-07 02:50:00,
2013-08-06 22:52:00,83.5,79.2,29.53,North,359,0.0,0.0,87,0.00,,,0.01,VWS V14.01,2013-08-07 02:52:00,
2013-08-06 23:00:00,83.4,79.2,29.54,North,359,0.0,0.0,87,0.00,,,0.01,VWS V14.01,2013-08-07 03:00:00,
2013-08-06 23:05:00,83.1,79.2,29.54,North,359,0.0,0.0,88,0.00,,,0.01,VWS V14.01,2013-08-07 03:05:00,
2013-08-06 23:10:00,83.1,79.2,29.54,North,359,0.0,0.0,88,0.00,,,0.01,VWS V14.01,2013-08-07 03:10:00,
2013-08-06 23:15:00,83.0,79.3,29.54,North,359,0.0,0.0,89,0.00,,,0.01,VWS V14.01,2013-08-07 03:15:00,
2013-08-06 23:20:00,82.6,79.1,29.54,North,359,0.0,0.0,89,0.00,,,0.01,VWS V14.01,2013-08-07 03:20:00,
2013-08-06 23:25:00,82.5,79.1,29.54,North,359,0.0,0.0,90,0.00,,,0.01,VWS V14.01,2013-08-07 03:25:00,
2013-08-06 23:30:00,82.6,79.2,29.54,North,359,0.0,0.0,90,0.00,,,0.01,VWS V14.01,2013-08-07 03:30:00,
2013-08-06 23:35:00,82.5,79.2,29.54,North,359,0.0,0.0,90,0.00,,,0.01,VWS V14.01,2013-08-07 03:35:00,
2013-08-06 23:40:00,82.3,79.1,29.54,North,359,0.0,0.0,90,0.00,,,0.01,VWS V14.01,2013-08-07 03:40:00,
2013-08-06 23:45:00,82.2,79.0,29.53,North,359,0.0,0.0,90,0.00,,,0.01,VWS V14.01,2013-08-07 03:45:00,
2013-08-06 23:49:00,82.0,78.8,29.53,North,359,0.0,0.0,90,0.00,,,0.01,VWS V14.01,2013-08-07 03:49:00,
2013-08-06 23:54:00,81.9,78.7,29.53,North,359,0.0,0.0,90,0.00,,,0.01,VWS V14.01,2013-08-07 03:54:00,
2013-08-06 23:59:00,81.9,78.7,29.53,North,359,0.0,0.0,90,0.00,,,0.01,VWS V14.01,2013-08-07 03:59:00,